Time,TemperatureF,DewpointF,PressureIn,WindDirection,WindDirectionDegrees,WindSpeedMPH,WindSpeedGustMPH,Humidity,HourlyPrecipIn,Conditions,Clouds,dailyrainin,SoftwareType,DateUTC
2013-06-18 00:12:00,68.0,53.0,-100.00,SW,220,3.0,5.0,59,-99.99,,,-99.99,,2013-06-18 04:12:00,
2013-06-18 00:23:00,67.0,54.0,-100.00,West,260,1.0,3.0,62,-99.99,,,-99.99,,2013-06-18 04:23:00,
2013-06-18 00:34:00,67.0,54.0,-100.00,West,260,1.0,3.0,62,-99.99,,,-99.99,,2013-06-18 04:34:00,
2013-06-18 00:43:00,67.0,55.0,-100.00,WSW,255,0.0,2.0,66,-99.99,,,-99.99,,2013-06-18 04:43:00,
2013-06-18 00:53:00,67.0,55.0,-100.00,WSW,255,0.0,2.0,66,-99.99,,,-99.99,,2013-06-18 04:53:00,
2013-06-18 01:03:00,67.0,58.0,-100.00,SSW,210,4.0,6.0,72,-99.99,,,-99.99,,2013-06-18 05:03:00,
2013-06-18 01:12:00,68.0,59.0,-100.00,WSW,250,1.0,5.0,74,-99.99,,,-99.99,,2013-06-18 05:12:00,
2013-06-18 01:22:00,68.0,59.0,-100.00,WSW,250,1.0,5.0,74,-99.99,,,-99.99,,2013-06-18 05:22:00,
2013-06-18 01:34:00,68.0,60.0,-100.00,WSW,245,3.0,5.0,76,-99.99,,,-99.99,,2013-06-18 05:34:00,
2013-06-18 01:43:00,68.0,61.0,-100.00,West,270,2.0,9.0,77,-99.99,,,-99.99,,2013-06-18 05:43:00,
2013-06-18 01:53:00,68.0,61.0,-100.00,West,270,2.0,9.0,77,-99.99,,,-99.99,,2013-06-18 05:53:00,
2013-06-18 02:02:00,68.0,61.0,-100.00,West,275,1.0,5.0,79,-99.99,,,-99.99,,2013-06-18 06:02:00,
2013-06-18 02:12:00,67.0,61.0,-100.00,West,270,1.0,5.0,81,-99.99,,,-99.99,,2013-06-18 06:12:00,
2013-06-18 02:24:00,66.0,61.0,-100.00,West,260,0.0,6.0,82,-99.99,,,-99.99,,2013-06-18 06:24:00,
2013-06-18 02:33:00,66.0,61.0,-100.00,West,260,0.0,6.0,82,-99.99,,,-99.99,,2013-06-18 06:33:00,
2013-06-18 02:43:00,65.0,60.0,-100.00,NNW,330,1.0,3.0,83,-99.99,,,-99.99,,2013-06-18 06:43:00,
2013-06-18 02:53:00,65.0,60.0,-100.00,NNW,330,1.0,3.0,83,-99.99,,,-99.99,,2013-06-18 06:53:00,
2013-06-18 03:02:00,65.0,60.0,-100.00,NW,310,0.0,0.0,84,-99.99,,,-99.99,,2013-06-18 07:02:00,
2013-06-18 03:12:00,64.0,60.0,-100.00,NNW,330,0.0,1.0,85,-99.99,,,-99.99,,2013-06-18 07:12:00,
2013-06-18 03:22:00,64.0,60.0,-100.00,NNW,330,0.0,1.0,85,-99.99,,,-99.99,,2013-06-18 07:22:00,
2013-06-18 03:33:00,63.0,59.0,-100.00,NW,325,0.0,3.0,85,-99.99,,,-99.99,,2013-06-18 07:33:00,
2013-06-18 03:43:00,63.0,58.0,-100.00,West,275,0.0,1.0,84,-99.99,,,-99.99,,2013-06-18 07:43:00,
2013-06-18 03:53:00,63.0,58.0,-100.00,SW,220,0.0,1.0,84,-99.99,,,-99.99,,2013-06-18 07:53:00,
2013-06-18 04:02:00,63.0,58.0,-100.00,SW,220,0.0,1.0,84,-99.99,,,-99.99,,2013-06-18 08:02:00,
2013-06-18 04:11:00,63.0,58.0,-100.00,SW,220,0.0,0.0,83,-99.99,,,-99.99,,2013-06-18 08:11:00,
2013-06-18 04:23:00,63.0,57.0,-100.00,SW,220,0.0,1.0,83,-99.99,,,-99.99,,2013-06-18 08:23:00,
2013-06-18 04:33:00,63.0,57.0,-100.00,SW,220,0.0,1.0,83,-99.99,,,-99.99,,2013-06-18 08:33:00,
2013-06-18 04:43:00,62.0,57.0,-100.00,SW,220,0.0,0.0,84,-99.99,,,-99.99,,2013-06-18 08:43:00,
2013-06-18 04:52:00,62.0,57.0,-100.00,SW,220,0.0,0.0,84,-99.99,,,-99.99,,2013-06-18 08:52:00,
2013-06-18 05:02:00,62.0,57.0,-100.00,SW,220,0.0,2.0,84,-99.99,,,-99.99,,2013-06-18 09:02:00,
2013-06-18 05:12:00,62.0,57.0,-100.00,SW,220,0.0,0.0,84,-99.99,,,-99.99,,2013-06-18 09:12:00,
2013-06-18 05:22:00,62.0,57.0,-100.00,SW,220,0.0,0.0,84,-99.99,,,-99.99,,2013-06-18 09:22:00,
2013-06-18 05:34:00,62.0,57.0,-100.00,SW,220,0.0,0.0,85,-99.99,,,-99.99,,2013-06-18 09:34:00,
2013-06-18 05:43:00,62.0,57.0,-100.00,SW,220,0.0,0.0,85,-99.99,,,-99.99,,2013-06-18 09:43:00,
2013-06-18 05:53:00,62.0,57.0,-100.00,SW,220,0.0,0.0,85,-99.99,,,-99.99,,2013-06-18 09:53:00,
2013-06-18 06:02:00,62.0,57.0,-100.00,SW,220,0.0,0.0,85,-99.99,,,-99.99,,2013-06-18 10:02:00,
2013-06-18 06:11:00,62.0,57.0,-100.00,SSW,210,0.0,0.0,85,-99.99,,,-99.99,,2013-06-18 10:11:00,
2013-06-18 06:22:00,62.0,57.0,-100.00,SSW,210,0.0,0.0,85,-99.99,,,-99.99,,2013-06-18 10:22:00,
2013-06-18 06:33:00,62.0,57.0,-100.00,SSW,210,0.0,0.0,85,-99.99,,,-99.99,,2013-06-18 10:33:00,
2013-06-18 06:43:00,62.0,58.0,-100.00,SW,215,0.0,1.0,85,-99.99,,,-99.99,,2013-06-18 10:43:00,
2013-06-18 06:53:00,62.0,58.0,-100.00,SW,215,0.0,1.0,85,-99.99,,,-99.99,,2013-06-18 10:53:00,
2013-06-18 07:02:00,63.0,59.0,-100.00,SW,215,1.0,1.0,85,-99.99,,,-99.99,,2013-06-18 11:02:00,
2013-06-18 07:11:00,63.0,59.0,-100.00,SW,215,1.0,1.0,85,-99.99,,,-99.99,,2013-06-18 11:11:00,
2013-06-18 07:22:00,65.0,59.0,-100.00,SE,145,2.0,3.0,79,-99.99,,,-99.99,,2013-06-18 11:22:00,
2013-06-18 07:32:00,65.0,59.0,-100.00,SE,145,2.0,3.0,79,-99.99,,,-99.99,,2013-06-18 11:32:00,
2013-06-18 07:43:00,66.0,59.0,-100.00,ESE,115,1.0,3.0,76,-99.99,,,-99.99,,2013-06-18 11:43:00,
2013-06-18 07:52:00,66.0,59.0,-100.00,ESE,115,1.0,3.0,76,-99.99,,,-99.99,,2013-06-18 11:52:00,
2013-06-18 08:01:00,67.0,58.0,-100.00,ESE,115,2.0,5.0,72,-99.99,,,-99.99,,2013-06-18 12:01:00,
2013-06-18 08:11:00,68.0,58.0,-100.00,ESE,110,3.0,5.0,70,-99.99,,,-99.99,,2013-06-18 12:11:00,
2013-06-18 08:22:00,69.0,58.0,-100.00,ESE,120,3.0,4.0,67,-99.99,,,-99.99,,2013-06-18 12:22:00,
2013-06-18 08:33:00,69.0,58.0,-100.00,ESE,120,3.0,4.0,67,-99.99,,,-99.99,,2013-06-18 12:33:00,
2013-06-18 08:43:00,71.0,58.0,-100.00,ENE,70,4.0,6.0,64,-99.99,,,-99.99,,2013-06-18 12:43:00,
2013-06-18 08:52:00,71.0,58.0,-100.00,ENE,70,4.0,6.0,64,-99.99,,,-99.99,,2013-06-18 12:52:00,
2013-06-18 09:02:00,72.0,56.0,-100.00,ESE,120,2.0,6.0,59,-99.99,,,-99.99,,2013-06-18 13:02:00,
2013-06-18 09:12:00,72.0,56.0,-100.00,ESE,120,2.0,6.0,59,-99.99,,,-99.99,,2013-06-18 13:12:00,
2013-06-18 09:22:00,73.0,56.0,-100.00,SE,135,1.0,6.0,56,-99.99,,,-99.99,,2013-06-18 13:22:00,
2013-06-18 09:33:00,73.0,55.0,-100.00,East,80,5.0,7.0,54,-99.99,,,-99.99,,2013-06-18 13:33:00,
2013-06-18 09:43:00,75.0,57.0,-100.00,East,85,2.0,5.0,52,-99.99,,,-99.99,,2013-06-18 13:43:00,
2013-06-18 09:52:00,75.0,57.0,-100.00,East,85,2.0,5.0,52,-99.99,,,-99.99,,2013-06-18 13:52:00,
2013-06-18 10:02:00,76.0,56.0,-100.00,NE,55,2.0,5.0,50,-99.99,,,-99.99,,2013-06-18 14:02:00,
2013-06-18 10:12:00,76.0,56.0,-100.00,SSE,150,1.0,4.0,50,-99.99,,,-99.99,,2013-06-18 14:12:00,
2013-06-18 10:22:00,78.0,56.0,-100.00,ESE,115,1.0,3.0,47,-99.99,,,-99.99,,2013-06-18 14:22:00,
2013-06-18 10:43:00,79.0,56.0,-100.00,NE,40,2.0,4.0,45,-99.99,,,-99.99,,2013-06-18 14:43:00,
2013-06-18 11:02:00,80.0,55.0,-100.00,East,90,2.0,4.0,43,-99.99,,,-99.99,,2013-06-18 15:02:00,
2013-06-18 11:11:00,79.0,56.0,-100.00,SSE,155,1.0,5.0,44,-99.99,,,-99.99,,2013-06-18 15:11:00,
2013-06-18 11:22:00,80.0,56.0,-100.00,ENE,60,1.0,4.0,43,-99.99,,,-99.99,,2013-06-18 15:22:00,
2013-06-18 11:33:00,80.0,56.0,-100.00,ENE,60,1.0,4.0,43,-99.99,,,-99.99,,2013-06-18 15:33:00,
2013-06-18 11:43:00,82.0,56.0,-100.00,East,80,3.0,5.0,41,-99.99,,,-99.99,,2013-06-18 15:43:00,
2013-06-18 11:53:00,82.0,56.0,-100.00,East,80,3.0,5.0,41,-99.99,,,-99.99,,2013-06-18 15:53:00,
2013-06-18 12:02:00,83.0,56.0,-100.00,South,180,2.0,4.0,40,-99.99,,,-99.99,,2013-06-18 16:02:00,
2013-06-18 12:11:00,83.0,56.0,-100.00,South,180,2.0,4.0,40,-99.99,,,-99.99,,2013-06-18 16:11:00,
2013-06-18 12:23:00,82.0,55.0,-100.00,South,185,5.0,7.0,40,-99.99,,,-99.99,,2013-06-18 16:23:00,
2013-06-18 12:33:00,82.0,55.0,-100.00,SW,225,3.0,5.0,40,-99.99,,,-99.99,,2013-06-18 16:33:00,
2013-06-18 12:43:00,81.0,56.0,-100.00,ESE,120,2.0,6.0,42,-99.99,,,-99.99,,2013-06-18 16:43:00,
2013-06-18 13:02:00,81.0,57.0,-100.00,ESE,120,3.0,6.0,44,-99.99,,,-99.99,,2013-06-18 17:02:00,
2013-06-18 13:12:00,80.0,57.0,-100.00,East,100,3.0,7.0,46,-99.99,,,-99.99,,2013-06-18 17:12:00,
2013-06-18 13:22:00,81.0,58.0,-100.00,SE,135,4.0,7.0,45,-99.99,,,-99.99,,2013-06-18 17:22:00,
2013-06-18 13:34:00,81.0,58.0,-100.00,SE,135,4.0,7.0,45,-99.99,,,-99.99,,2013-06-18 17:34:00,
2013-06-18 13:43:00,81.0,58.0,-100.00,SE,125,4.0,5.0,46,-99.99,,,-99.99,,2013-06-18 17:43:00,
2013-06-18 13:53:00,81.0,58.0,-100.00,SE,125,4.0,5.0,46,-99.99,,,-99.99,,2013-06-18 17:53:00,
2013-06-18 14:02:00,80.0,58.0,-100.00,SW,225,4.0,8.0,47,-99.99,,,-99.99,,2013-06-18 18:02:00,
2013-06-18 14:12:00,79.0,58.0,-100.00,SE,140,2.0,6.0,49,-99.99,,,-99.99,,2013-06-18 18:12:00,
2013-06-18 14:22:00,77.0,57.0,-100.00,SW,215,2.0,6.0,49,-99.99,,,-99.99,,2013-06-18 18:22:00,
2013-06-18 15:02:00,76.0,61.0,-100.00,SW,235,1.0,6.0,60,-99.99,,,-99.99,,2013-06-18 19:02:00,
2013-06-18 15:12:00,76.0,61.0,-100.00,SW,235,1.0,6.0,60,-99.99,,,-99.99,,2013-06-18 19:12:00,
2013-06-18 15:22:00,75.0,62.0,-100.00,SW,230,3.0,6.0,63,-99.99,,,-99.99,,2013-06-18 19:22:00,
2013-06-18 15:33:00,76.0,63.0,-100.00,SSW,200,4.0,5.0,64,-99.99,,,-99.99,,2013-06-18 19:33:00,
2013-06-18 15:43:00,76.0,63.0,-100.00,SSW,205,2.0,5.0,64,-99.99,,,-99.99,,2013-06-18 19:43:00,
2013-06-18 15:52:00,76.0,63.0,-100.00,SSW,205,2.0,5.0,64,-99.99,,,-99.99,,2013-06-18 19:52:00,
2013-06-18 16:02:00,76.0,64.0,-100.00,SW,230,3.0,5.0,66,-99.99,,,-99.99,,2013-06-18 20:02:00,
2013-06-18 16:12:00,76.0,64.0,-100.00,SW,230,3.0,5.0,66,-99.99,,,-99.99,,2013-06-18 20:12:00,
2013-06-18 16:23:00,75.0,64.0,-100.00,SW,235,2.0,4.0,68,-99.99,,,-99.99,,2013-06-18 20:23:00,
2013-06-18 16:33:00,74.0,65.0,-100.00,SE,140,3.0,5.0,72,-99.99,,,-99.99,,2013-06-18 20:33:00,
2013-06-18 16:43:00,74.0,65.0,-100.00,SSW,200,2.0,4.0,74,-99.99,,,-99.99,,2013-06-18 20:43:00,
2013-06-18 16:52:00,74.0,65.0,-100.00,SSW,200,2.0,4.0,74,-99.99,,,-99.99,,2013-06-18 20:52:00,
2013-06-18 17:02:00,73.0,66.0,-100.00,SW,225,4.0,7.0,78,-99.99,,,-99.99,,2013-06-18 21:02:00,
2013-06-18 17:12:00,73.0,67.0,-100.00,South,190,1.0,5.0,81,-99.99,,,-99.99,,2013-06-18 21:12:00,
2013-06-18 17:23:00,73.0,67.0,-100.00,South,190,1.0,5.0,81,-99.99,,,-99.99,,2013-06-18 21:23:00,
2013-06-18 17:43:00,67.0,62.0,-100.00,East,90,10.0,17.0,83,-99.99,,,-99.99,,2013-06-18 21:43:00,
2013-06-18 17:52:00,67.0,62.0,-100.00,East,90,10.0,17.0,83,-99.99,,,-99.99,,2013-06-18 21:52:00,
2013-06-18 18:02:00,67.0,61.0,-100.00,East,80,4.0,7.0,83,-99.99,,,-99.99,,2013-06-18 22:02:00,
2013-06-18 18:12:00,63.0,58.0,-100.00,SW,220,7.0,10.0,84,-99.99,,,-99.99,,2013-06-18 22:12:00,
2013-06-18 18:22:00,62.0,57.0,-100.00,SW,215,3.0,11.0,84,-99.99,,,-99.99,,2013-06-18 22:22:00,
2013-06-18 18:34:00,62.0,57.0,-100.00,SW,215,3.0,11.0,84,-99.99,,,-99.99,,2013-06-18 22:34:00,
2013-06-18 18:43:00,62.0,58.0,-100.00,SE,130,1.0,6.0,85,-99.99,,,-99.99,,2013-06-18 22:43:00,
2013-06-18 18:53:00,62.0,58.0,-100.00,SE,125,3.0,4.0,86,-99.99,,,-99.99,,2013-06-18 22:53:00,
2013-06-18 19:02:00,62.0,58.0,-100.00,SE,125,3.0,4.0,86,-99.99,,,-99.99,,2013-06-18 23:02:00,
2013-06-18 19:12:00,62.0,58.0,-100.00,East,85,4.0,7.0,87,-99.99,,,-99.99,,2013-06-18 23:12:00,
2013-06-18 19:23:00,62.0,58.0,-100.00,East,85,4.0,7.0,87,-99.99,,,-99.99,,2013-06-18 23:23:00,
2013-06-18 19:38:00,62.0,58.0,-100.00,SSE,155,1.0,6.0,87,-99.99,,,-99.99,,2013-06-18 23:38:00,
2013-06-18 19:48:00,62.0,58.0,-100.00,ESE,115,2.0,4.0,87,-99.99,,,-99.99,,2013-06-18 23:48:00,
2013-06-18 19:53:00,62.0,58.0,-100.00,ESE,115,2.0,4.0,87,-99.99,,,-99.99,,2013-06-18 23:53:00,
2013-06-18 20:02:00,63.0,59.0,-100.00,East,80,1.0,3.0,87,-99.99,,,-99.99,,2013-06-19 00:02:00,
2013-06-18 20:12:00,63.0,59.0,-100.00,ENE,75,0.0,2.0,87,-99.99,,,-99.99,,2013-06-19 00:12:00,
2013-06-18 20:22:00,63.0,59.0,-100.00,ENE,75,0.0,2.0,87,-99.99,,,-99.99,,2013-06-19 00:22:00,
2013-06-18 20:33:00,63.0,59.0,-100.00,ENE,75,0.0,1.0,87,-99.99,,,-99.99,,2013-06-19 00:33:00,
2013-06-18 20:43:00,62.0,58.0,-100.00,ESE,120,1.0,3.0,87,-99.99,,,-99.99,,2013-06-19 00:43:00,
2013-06-18 20:53:00,62.0,58.0,-100.00,ESE,120,1.0,3.0,87,-99.99,,,-99.99,,2013-06-19 00:53:00,
2013-06-18 21:02:00,62.0,59.0,-100.00,East,100,1.0,2.0,87,-99.99,,,-99.99,,2013-06-19 01:02:00,
2013-06-18 21:11:00,63.0,59.0,-100.00,ENE,70,1.0,3.0,87,-99.99,,,-99.99,,2013-06-19 01:11:00,
2013-06-18 21:22:00,63.0,59.0,-100.00,ENE,70,1.0,3.0,87,-99.99,,,-99.99,,2013-06-19 01:22:00,
2013-06-18 21:32:00,63.0,59.0,-100.00,ENE,70,0.0,3.0,87,-99.99,,,-99.99,,2013-06-19 01:32:00,
2013-06-18 21:43:00,62.0,58.0,-100.00,ENE,75,2.0,6.0,87,-99.99,,,-99.99,,2013-06-19 01:43:00,
2013-06-18 21:53:00,62.0,58.0,-100.00,ENE,75,2.0,6.0,87,-99.99,,,-99.99,,2013-06-19 01:53:00,
2013-06-18 22:02:00,62.0,58.0,-100.00,ENE,60,1.0,3.0,87,-99.99,,,-99.99,,2013-06-19 02:02:00,
2013-06-18 22:11:00,62.0,58.0,-100.00,NNE,20,3.0,9.0,87,-99.99,,,-99.99,,2013-06-19 02:11:00,
2013-06-18 22:21:00,62.0,58.0,-100.00,NNE,20,3.0,9.0,87,-99.99,,,-99.99,,2013-06-19 02:21:00,
2013-06-18 22:32:00,62.0,58.0,-100.00,NE,35,1.0,7.0,87,-99.99,,,-99.99,,2013-06-19 02:32:00,
2013-06-18 22:42:00,62.0,58.0,-100.00,NE,55,3.0,5.0,87,-99.99,,,-99.99,,2013-06-19 02:42:00,
2013-06-18 22:52:00,61.0,57.0,-100.00,ENE,70,2.0,9.0,87,-99.99,,,-99.99,,2013-06-19 02:52:00,
2013-06-18 23:01:00,61.0,57.0,-100.00,ENE,70,2.0,9.0,87,-99.99,,,-99.99,,2013-06-19 03:01:00,
2013-06-18 23:12:00,61.0,57.0,-100.00,ENE,60,4.0,8.0,87,-99.99,,,-99.99,,2013-06-19 03:12:00,
2013-06-18 23:22:00,61.0,57.0,-100.00,ENE,60,4.0,8.0,87,-99.99,,,-99.99,,2013-06-19 03:22:00,
2013-06-18 23:33:00,60.0,56.0,-100.00,East,85,2.0,9.0,87,-99.99,,,-99.99,,2013-06-19 03:33:00,
2013-06-18 23:43:00,59.0,55.0,-100.00,NE,55,5.0,9.0,87,-99.99,,,-99.99,,2013-06-19 03:43:00,
2013-06-18 23:52:00,59.0,55.0,-100.00,NE,55,5.0,9.0,87,-99.99,,,-99.99,,2013-06-19 03:52:00,